Regional Weather Roundup
Issued by NWS

Home | Current Version | Previous Version | Graphics & Text | Print | Product List | Glossary On
Versions: 1 2 3 4 5 6 7 8 9 10 11 12 13 14 15 16 17 18 19 20 21 22 23 24 25 26 27 28 29 30 31 32 33 34 35 36 37 38 39 40 41 42 43 44 45 46 47 48 49 50
000
ASUS45 KBOI 271010
RWRID
WEATHER ROUNDUP FOR IDAHO
NATIONAL WEATHER SERVICE BOISE ID
300 AM MST THU NOV 27 2014

NOTE: "FAIR" INDICATES FEW OR NO CLOUDS BELOW 12000 FEET
WITH NO SIGNIFICANT WEATHER AND/OR OBSTRUCTIONS TO VISIBILITY

IDZ012-014-271100-
SOUTHWEST IDAHO


CITY           SKY/WX    TMP DP  RH WIND       PRES   REMARKS
BOISE          CLOUDY    43  37  79 CALM      30.17R
CALDWELL       NOT AVBL
MOUNTAIN HOME  CLOUDY    45  40  83 E16       30.16S
$$

IDZ016-017-271100-
SOUTHCENTRAL IDAHO


CITY           SKY/WX    TMP DP  RH WIND       PRES   REMARKS
BURLEY         CLOUDY    48  29  47 SW12      30.20F
JEROME         CLOUDY    42  32  67 NE5       30.21S
TWIN FALLS     CLOUDY    47  30  51 VRB3      30.21R
$$

IDZ019>023-271100-
SOUTHEAST IDAHO


CITY           SKY/WX    TMP DP  RH WIND       PRES   REMARKS
IDAHO FALLS    CLOUDY    38  31  76 SW6       30.23S WCI  33
POCATELLO      CLEAR     52  26  36 S15G21    30.23F
REXBURG        CLOUDY    34  29  82 CALM      30.24S
$$

IDZ006-010-011-018-031-032-271100-
CENTRAL IDAHO MOUNTAINS


CITY           SKY/WX    TMP DP  RH WIND       PRES   REMARKS
MCCALL         CLOUDY    33  32  96 CALM      30.16F
HAILEY         CLOUDY    34  28  80 NW10      30.26F WCI  26
STANLEY          N/A     33  23  66 CALM      30.24S
SALMON         CLOUDY    30  28  93 S3        30.17R VSB 1/4
CHALLIS        CLOUDY    33  27  78 NW5       30.18F WCI  29
$$

IDZ002-004-006-007-026-271100-
NORTHERN IDAHO


CITY           SKY/WX    TMP DP  RH WIND       PRES   REMARKS
LEWISTON       CLOUDY    47  41  80 CALM      29.99F
LOWELL           N/A     40  39  97 CALM      30.12F
COEUR D`ALENE  CLOUDY    46  39  76 S14       29.91F
MULLAN PASS    CLOUDY    36  34  92 SW14G29   29.97S WCI  27
$$


USA.gov is the U.S. government's official web portal to all federal, state and local government web resources and services.